Weather in Shumovka

Russia / Ulyanovsk Oblast     54°30′54″N   48°12′41″E
temp.,
°C
wind,
m/s
gust,
m/s
humid.,
%
clouds,
%
prec.,
mm/h
press.,
hPa
HPBL,
m
14 august, sun
sun1401:00+18nne34734 0.0 102163
04:00+17nne34755 0.0 102172
07:00+17n35776 0.0 1022165
10:00+21ene465844 0.0 1022575
13:00+24ne45476 0.0 1021996
16:00+25ne664019 0.0 10211074
19:00+22nne594767 0.0 1021286
22:00+19ene4960100 0.0 1021175
15 august, mon
mon1501:00+17e3565100 0.0 102277
04:00+16ese236399 0.0 102245
07:00+17e2362100 0.0 1023123
10:00+20e345078 0.0 1023368
13:00+23ene3441100 0.0 1023668
16:00+25ene344186 0.0 10221128
19:00+23ene245326 0.0 102274
22:00+21ene235898 0.0 102356
16 august, tue
tue1601:00+20e246771 0.0 102397
04:00+17ene22780 0.0 102434
07:00+18ene24760 0.0 1025163
10:00+21ene34620 0.0 1025413
13:00+24ene34470 0.0 1025901
16:00+26ne34400 0.0 10231384
19:00+23ne475241 0.0 1023202
22:00+20ne376281 0.0 1023141
17 august, wed
wed1701:00+18ese34697 0.0 102470
04:00+17e346721 0.0 102368
07:00+18e366427 0.0 1024184
10:00+21e344973 0.0 1023345
13:00+24ene3441100 0.0 1022589
16:00+26ne343688 0.0 1021772
19:00+23ne3547100 0.0 1020125
22:00+20ne3658100 0.0 102095
18 august, thu
thu1801:00+19ene3661100 0.0 1020125
04:00+19ene3666100 0.0 1020143
07:00+19ene466899 0.0 1020185
10:00+22ene465486 0.0 1020326
13:00+25ese4644100 0.0 1019756
16:00+25se354353 0.0 1018448
19:00+24nne3549100 0.0 101898
22:00+22ene5958100 0.0 1019171